Wind_Speed
21 22 22 22 21 20 19 19 20 22 22 19 19 22 25 25 28 30 32 36 39 42 44 45 45 46 47 48 49 50 52 54 56 57 58 59 59 59 59 58 58 57 56 56
19 19 19 19 18 17 18 17 18 19 20 21 24 28 30 31 33 36 40 45 47 46 46 47 48 49 50 51 52 52 53 54 56 57 59 60 62 62 61 60 59 58 57 57
16 15 15 15 15 16 17 19 20 23 25 27 31 36 38 39 42 46 50 52 53 54 53 51 50 50 51 52 52 53 53 55 56 58 60 62 64 64 64 62 61 60 58 57
14 15 16 17 18 19 21 24 26 29 32 35 38 43 45 48 50 53 55 55 57 59 59 59 57 56 56 56 56 56 56 56 56 56 58 61 63 63 63 63 62 61 59 56
17 18 19 20 22 24 26 29 32 35 38 41 43 45 49 52 56 58 58 59 60 61 61 60 60 62 63 64 65 65 66 64 63 61 60 61 63 64 64 63 62 61 58 56
18 19 21 23 25 28 30 33 35 37 40 42 45 49 54 56 57 58 58 58 59 60 62 64 67 69 72 74 74 75 76 74 72 68 63 63 64 64 63 61 60 58 56 54
22 23 26 27 29 32 35 37 39 41 44 47 50 53 54 54 55 57 59 62 64 66 70 73 76 79 80 81 81 80 80 77 73 68 63 63 63 63 62 60 57 55 53 52
25 26 29 31 34 37 40 41 43 45 47 49 51 52 54 58 62 64 67 70 72 75 80 84 85 86 86 85 84 80 75 70 67 64 59 57 57 59 59 55 54 50 48 48
31 32 35 37 40 43 44 45 48 49 49 48 51 59 64 66 68 69 73 76 79 82 86 88 88 87 85 81 76 72 68 63 61 59 55 52 52 53 51 48 50 48 48 48
36 37 39 42 43 44 47 48 48 49 51 54 56 63 68 69 70 75 79 81 84 87 87 84 81 78 72 66 61 59 60 58 55 53 53 55 48 53 53 49 45 46 47 46
39 40 42 44 46 47 47 47 49 53 56 60 63 63 67 70 75 79 80 82 83 81 75 70 66 61 56 52 51 52 54 56 55 52 52 57 54 52 51 52 45 43 44 46
40 43 45 46 47 49 50 49 50 54 58 62 65 66 70 74 78 79 77 75 71 66 61 57 59 62 62 59 56 53 52 53 53 53 53 56 53 54 59 53 46 42 40 41
43 46 46 47 48 50 50 51 56 60 64 65 69 70 74 75 77 73 70 66 62 57 55 56 62 69 67 65 59 56 53 49 46 48 51 52 51 49 52 53 45 40 38 37
44 44 45 45 47 51 53 55 61 66 67 68 68 74 74 76 71 66 64 61 56 55 57 63 73 73 64 60 55 51 45 42 38 39 45 43 47 50 43 42 39 38 36 38
46 45 46 48 51 53 56 60 65 68 69 69 70 74 72 69 64 62 60 54 53 54 60 70 74 66 54 45 41 39 35 33 30 34 38 41 39 42 40 41 38 39 44 43
48 48 51 52 54 57 60 65 70 71 72 70 71 69 65 60 56 53 50 51 53 57 65 73 71 57 41 34 29 26 26 28 26 27 30 33 36 36 35 39 40 40 40 34
47 50 53 55 58 62 66 70 74 74 71 68 68 65 62 54 48 47 48 49 53 59 66 69 59 35 24 20 18 18 22 28 22 18 21 26 27 30 32 34 36 40 36 35
51 55 58 60 63 67 70 76 76 74 67 60 59 57 54 51 45 44 45 47 51 57 62 59 43 24 18 14 16 18 21 22 18 12 12 19 18 17 19 20 23 26 29 32
56 57 60 64 68 72 75 78 75 72 64 57 55 52 49 42 37 38 40 45 48 52 54 47 35 22 15 13 17 17 17 18 18 11 9 13 13 14 16 20 23 24 27 30
56 59 62 68 73 76 75 76 71 65 58 52 50 49 48 39 33 34 38 43 43 44 45 37 28 20 15 15 15 16 15 17 17 14 10 12 16 21 26 27 26 27 29 32
58 61 65 71 76 76 74 70 65 58 54 48 46 47 47 39 33 32 36 39 38 36 37 33 25 20 17 16 17 16 15 15 16 17 16 17 19 22 25 27 28 29 31 32
61 65 70 74 76 72 68 61 54 50 47 46 46 46 42 35 31 31 34 35 35 35 33 31 27 22 21 20 18 16 17 18 19 19 21 25 27 28 28 29 30 31 32 33
64 69 72 73 69 65 57 52 48 46 47 48 46 42 36 30 28 31 33 34 36 35 33 31 28 26 25 23 21 21 21 23 24 25 26 28 32 34 33 33 33 34 34 34
68 72 72 67 63 59 52 47 45 47 48 47 42 36 31 27 29 30 30 32 35 36 35 33 32 30 28 27 25 25 26 27 28 30 33 35 36 38 40 40 40 39 38 38
72 72 68 62 58 50 46 45 46 47 45 41 37 33 30 30 30 29 30 33 36 36 36 36 35 35 34 32 30 28 28 29 31 34 37 39 41 43 43 44 46 46 45 46
72 69 64 57 53 48 45 43 46 45 42 38 33 31 31 30 31 31 32 34 35 37 38 38 37 38 37 36 34 33 32 32 34 35 36 38 41 42 44 45 46 48 49 50
Wind_Direction
297 299 298 298 299 300 298 296 295 293 291 292 292 289 286 284 284 286 289 290 291 291 291 291 291 291 290 288 286 284 283 282 282 282 281 281 280 279 278 277 276 275 275 274
299 302 304 304 303 301 302 303 301 296 292 292 293 293 292 292 289 288 291 293 295 296 295 295 294 291 289 287 285 283 281 280 279 279 278 279 279 279 279 278 277 277 276 275
315 315 316 314 311 307 303 300 298 296 294 293 297 296 295 294 293 295 297 298 299 299 299 299 295 293 292 291 290 287 283 281 279 278 277 277 277 276 276 275 275 275 275 275
337 336 332 325 317 310 304 302 300 298 297 297 298 300 300 299 301 302 304 304 303 302 302 302 302 302 300 299 297 293 290 287 284 282 279 278 277 276 275 274 273 272 272 272
329 327 322 316 312 308 306 305 303 302 302 302 303 304 305 305 308 308 307 305 304 304 302 302 301 301 301 301 299 296 294 292 290 285 280 277 276 275 275 273 271 270 270 269
326 323 320 317 316 314 313 310 307 306 305 305 305 305 306 306 306 305 305 305 304 303 303 302 302 302 300 298 296 294 292 290 288 285 280 275 273 271 270 268 267 268 267 266
325 321 318 315 314 313 313 312 310 310 309 308 306 306 305 306 306 305 306 306 305 305 304 302 301 299 297 296 295 294 292 289 286 281 275 271 270 267 265 264 265 265 264 265
321 320 317 314 313 312 313 314 314 312 310 309 310 311 311 309 309 310 307 305 305 305 304 301 299 297 296 295 293 291 289 285 280 275 269 266 264 263 264 266 265 263 263 264
321 320 318 316 314 315 316 317 314 312 310 312 315 315 313 311 313 310 308 307 306 303 300 298 297 297 296 295 293 291 287 280 273 269 265 261 255 256 260 260 262 263 266 267
318 319 320 317 316 316 317 317 318 318 317 315 315 316 315 316 312 309 307 304 302 301 301 302 301 299 298 297 294 290 285 278 269 260 255 255 256 253 253 254 266 274 273 272
318 319 321 320 319 319 319 319 318 317 315 315 315 313 312 310 307 307 306 306 305 306 306 305 304 304 302 299 297 293 285 277 267 255 247 251 252 254 263 261 260 266 269 270
320 321 321 320 319 319 319 319 317 316 315 312 310 312 309 307 307 307 307 307 309 308 307 307 308 308 306 301 297 291 287 281 270 257 246 244 253 260 260 259 268 271 271 272
320 322 322 322 321 321 320 320 317 315 312 312 310 311 307 307 307 308 309 311 310 307 306 307 310 311 306 302 297 290 287 282 275 263 254 247 248 251 255 254 255 262 268 271
320 321 321 321 321 321 319 319 316 313 312 310 310 308 309 310 312 312 312 312 311 309 308 309 313 313 308 301 294 285 284 279 274 267 255 251 250 245 248 245 248 257 263 272
320 320 320 320 319 318 318 317 314 312 312 311 311 310 313 315 314 314 314 312 311 310 310 312 315 313 310 303 294 286 286 277 279 272 255 244 245 248 248 247 256 262 269 276
321 320 320 319 318 316 316 315 314 315 314 314 313 314 314 314 312 313 314 312 314 315 314 317 319 312 305 301 299 289 282 273 288 278 255 244 237 241 250 252 260 265 267 259
320 319 317 317 316 316 317 316 315 315 316 316 315 314 314 315 315 318 318 319 322 321 323 326 328 322 308 308 307 295 284 281 299 288 242 235 232 239 245 255 260 260 256 253
320 319 317 317 317 318 317 314 315 316 318 315 313 312 314 316 317 321 321 324 328 327 330 334 339 338 328 329 326 317 299 292 310 301 228 216 228 240 252 258 256 250 248 250
320 318 317 317 318 317 315 315 318 318 318 316 313 313 313 311 310 319 323 328 329 331 336 341 345 343 341 344 337 323 307 300 312 308 246 217 220 232 243 249 253 254 254 247
318 317 318 318 318 316 316 317 318 318 321 319 314 313 315 313 313 320 328 331 332 335 341 345 350 357 353 339 324 315 311 307 305 299 265 234 236 236 238 245 255 259 253 249
317 319 320 319 317 316 318 319 320 322 323 319 315 314 315 314 314 319 326 328 330 332 339 341 341 341 337 329 318 306 294 293 294 288 267 248 244 252 256 259 265 264 260 257
319 320 321 320 319 320 322 321 323 324 323 320 317 314 311 310 312 318 324 325 327 329 333 336 333 326 321 321 317 306 295 286 281 282 273 264 258 260 264 264 265 265 264 264
320 322 321 320 320 322 323 323 327 325 323 320 317 313 310 310 317 323 326 325 327 328 329 329 328 324 317 311 307 302 295 288 281 276 277 276 267 262 262 263 267 269 269 268
320 321 319 320 321 324 323 325 327 325 323 324 322 319 314 318 322 323 324 324 327 327 325 323 322 321 319 314 307 297 290 287 283 278 274 274 274 270 267 266 268 269 271 271
320 320 320 320 322 324 322 325 330 331 330 330 330 325 320 322 322 321 323 324 325 326 324 321 318 316 313 310 306 300 293 288 285 282 278 275 272 270 270 271 271 269 268 270
320 321 321 322 324 326 327 329 332 333 331 333 332 326 326 326 323 323 325 326 327 328 326 321 317 315 312 307 303 300 296 291 287 284 283 280 277 276 275 273 272 271 269 269
Height
5814 5813 5811 5810 5808 5807 5804 5803 5801 5798 5796 5794 5792 5789 5785 5784 5782 5780 5777 5774 5771 5767 5764 5760 5756 5752 5748 5744 5740 5736 5733 5728 5724 5721 5718 5715 5712 5710 5708 5706 5705 5703 5702 5701
5810 5808 5807 5804 5803 5801 5799 5798 5795 5792 5790 5788 5786 5783 5781 5779 5776 5773 5769 5764 5759 5754 5750 5746 5742 5739 5734 5729 5725 5721 5717 5712 5708 5704 5701 5698 5695 5693 5691 5690 5688 5686 5684 5683
5806 5805 5802 5800 5799 5797 5795 5793 5790 5787 5785 5782 5779 5774 5773 5770 5766 5761 5756 5750 5744 5739 5735 5731 5727 5723 5718 5713 5709 5704 5700 5696 5693 5689 5686 5682 5680 5677 5674 5673 5671 5669 5667 5666
5804 5801 5799 5797 5795 5793 5790 5788 5785 5781 5778 5774 5771 5765 5761 5758 5754 5747 5741 5735 5729 5723 5718 5712 5707 5702 5698 5694 5691 5686 5683 5679 5675 5671 5668 5665 5662 5659 5657 5656 5654 5653 5651 5650
5801 5799 5796 5794 5791 5788 5786 5783 5779 5775 5770 5766 5762 5759 5754 5747 5740 5733 5727 5720 5713 5707 5701 5696 5691 5685 5681 5676 5671 5666 5662 5659 5655 5651 5649 5646 5642 5639 5637 5636 5636 5635 5634 5633
5798 5795 5792 5789 5786 5783 5780 5777 5772 5768 5763 5758 5753 5748 5743 5735 5728 5721 5714 5707 5699 5692 5685 5680 5673 5667 5661 5655 5650 5645 5641 5638 5633 5630 5628 5626 5622 5620 5619 5618 5618 5618 5617 5616
5795 5792 5788 5785 5782 5778 5774 5770 5765 5760 5755 5750 5742 5737 5732 5723 5715 5708 5700 5690 5682 5675 5668 5661 5654 5647 5640 5633 5627 5622 5616 5613 5610 5608 5606 5604 5602 5601 5599 5599 5600 5601 5602 5601
5790 5787 5783 5779 5775 5771 5767 5763 5757 5752 5746 5740 5733 5725 5718 5709 5699 5691 5681 5672 5665 5657 5649 5641 5632 5624 5616 5609 5602 5597 5592 5588 5585 5584 5584 5584 5585 5584 5584 5585 5584 5586 5587 5588
5784 5781 5777 5773 5768 5764 5759 5754 5747 5741 5734 5729 5724 5713 5702 5693 5686 5676 5666 5658 5649 5640 5630 5620 5611 5602 5593 5586 5578 5572 5568 5566 5564 5562 5563 5565 5567 5568 5570 5570 5570 5571 5572 5572
5777 5775 5771 5766 5761 5756 5750 5744 5738 5729 5723 5719 5718 5706 5688 5681 5671 5663 5653 5642 5630 5618 5607 5597 5587 5578 5572 5564 5558 5552 5545 5542 5543 5543 5545 5549 5551 5553 5554 5553 5555 5556 5557 5556
5771 5767 5763 5757 5752 5747 5741 5734 5727 5720 5712 5704 5701 5701 5679 5668 5655 5645 5634 5620 5607 5596 5586 5576 5568 5560 5553 5547 5541 5536 5528 5522 5522 5523 5525 5529 5534 5535 5537 5540 5542 5543 5544 5543
5765 5761 5755 5751 5745 5737 5730 5724 5717 5710 5700 5690 5682 5685 5665 5652 5640 5626 5615 5604 5593 5579 5569 5560 5550 5543 5537 5530 5525 5518 5511 5506 5504 5505 5507 5510 5515 5518 5523 5527 5528 5529 5530 5530
5758 5752 5746 5741 5736 5729 5721 5713 5704 5696 5686 5676 5665 5663 5644 5636 5626 5611 5597 5586 5576 5565 5555 5547 5537 5528 5517 5509 5505 5499 5493 5488 5485 5486 5489 5493 5499 5505 5508 5512 5516 5516 5518 5518
5749 5743 5738 5733 5725 5718 5712 5704 5693 5682 5672 5662 5651 5638 5627 5616 5603 5591 5580 5569 5559 5549 5539 5529 5519 5507 5497 5488 5483 5479 5475 5472 5471 5471 5473 5477 5482 5489 5494 5498 5502 5503 5505 5508
5741 5735 5728 5722 5715 5707 5700 5692 5680 5667 5654 5642 5633 5621 5609 5598 5584 5573 5564 5554 5546 5536 5526 5514 5501 5488 5479 5471 5465 5463 5461 5460 5459 5457 5458 5463 5468 5474 5480 5485 5488 5490 5492 5496
5733 5728 5721 5714 5705 5697 5689 5678 5664 5652 5636 5625 5612 5603 5595 5586 5572 5564 5554 5543 5534 5524 5512 5498 5482 5468 5461 5457 5455 5452 5452 5451 5450 5447 5445 5450 5457 5463 5469 5474 5477 5479 5482 5484
5725 5718 5710 5703 5693 5684 5676 5664 5651 5638 5621 5610 5598 5589 5579 5575 5563 5553 5543 5534 5523 5512 5498 5482 5465 5452 5450 5449 5449 5447 5446 5445 5444 5441 5440 5443 5449 5455 5460 5463 5466 5469 5473 5474
5716 5709 5701 5692 5682 5671 5659 5645 5637 5629 5614 5599 5587 5576 5567 5559 5552 5545 5535 5526 5516 5504 5490 5474 5460 5453 5449 5447 5445 5444 5443 5442 5440 5438 5437 5439 5443 5448 5452 5454 5458 5461 5464 5465
5706 5697 5689 5680 5669 5659 5644 5630 5619 5610 5606 5590 5577 5567 5558 5553 5547 5539 5530 5520 5509 5498 5485 5471 5460 5454 5450 5446 5444 5442 5441 5440 5438 5437 5436 5438 5440 5443 5446 5450 5452 5453 5454 5456
5696 5687 5677 5666 5655 5643 5629 5615 5603 5594 5587 5576 5565 5555 5547 5540 5536 5531 5522 5514 5505 5495 5484 5473 5463 5456 5451 5447 5444 5441 5440 5439 5437 5436 5435 5436 5438 5441 5442 5444 5445 5445 5446 5447
5685 5676 5665 5652 5639 5628 5616 5601 5590 5581 5575 5565 5555 5546 5538 5531 5527 5522 5516 5508 5500 5492 5482 5473 5465 5458 5451 5446 5442 5440 5439 5438 5436 5435 5434 5435 5435 5437 5437 5437 5437 5437 5438 5438
5675 5665 5654 5640 5626 5616 5601 5589 5579 5571 5561 5552 5545 5537 5530 5524 5520 5515 5510 5503 5496 5487 5479 5471 5463 5456 5450 5445 5441 5438 5436 5435 5433 5432 5431 5431 5430 5430 5430 5429 5429 5429 5429 5429
5666 5655 5641 5629 5618 5602 5590 5579 5571 5561 5552 5544 5536 5529 5521 5517 5512 5508 5502 5496 5490 5483 5475 5468 5461 5454 5448 5443 5438 5435 5432 5429 5428 5426 5425 5424 5423 5422 5421 5420 5419 5418 5418 5417
5654 5642 5629 5618 5607 5596 5583 5574 5565 5555 5545 5537 5527 5520 5515 5510 5506 5501 5496 5490 5484 5477 5470 5464 5458 5451 5445 5439 5434 5429 5426 5423 5420 5418 5416 5414 5412 5411 5410 5408 5407 5406 5405 5404
5640 5628 5616 5605 5596 5588 5576 5566 5557 5548 5538 5530 5522 5515 5510 5506 5501 5496 5491 5484 5478 5471 5465 5458 5452 5445 5439 5433 5428 5423 5419 5416 5412 5409 5406 5403 5401 5399 5397 5396 5394 5393 5391 5390
5626 5614 5603 5593 5583 5575 5567 5557 5549 5541 5533 5525 5518 5512 5506 5501 5497 5491 5485 5478 5472 5465 5458 5451 5444 5437 5430 5424 5419 5414 5410 5406 5402 5398 5395 5392 5389 5386 5383 5381 5380 5378 5377 5375